Miscellaneous Local Product
Issued by NWS Hastings, NE

Home | Current Version | Previous Version | Text Only | Print | Product List | Glossary Off
Versions: 1 2 3 4 5 6 7 8 9 10 11 12 13 14 15 16 17 18 19 20 21 22 23 24 25 26 27 28 29 30 31 32 33 34 35 36 37 38 39 40 41 42 43 44 45 46 47 48 49 50

000
AXUS43 KGID 200702
MISGRI

GID CWA HOURLY WEATHER ROUNDUP
NATIONAL WEATHER SERVICE HASTINGS NE
100 AM CST SAT DEC 20 2014

NOTE: "FAIR" INDICATES FEW OR NO CLOUDS BELOW 12,000 FEET WITH NO
SIGNIFICANT WEATHER AND/OR OBSTRUCTIONS TO VISIBILITY.

...SOUTH CENTRAL NEBRASKA...

CITY           SKY/WX    TMP DP  RH WIND       PRES   REMARKS
GRAND ISLAND   FOG       31  31 100 SW5       30.04F VSB 1/2 WCI  26
HASTINGS       FOG       30  29  96 SW6       30.03S VSB 1/4 WCI  24
KEARNEY        PTCLDY    23  21  93 SW5       30.02F WCI  17
ORD            NOT AVBL
YORK           FOG       32  32 100 CALM      30.06F VSB 1/2
AURORA         FOG       32  32 100 S5        30.04F VSB 1/2 WCI  27
LEXINGTON      CLEAR     23  22  95 W5        30.03S WCI  17
HOLDREGE       CLEAR     29  27  92 W7        30.02S WCI  22
HEBRON         CLOUDY    32  31  96 S6        30.08F FOG     WCI  27

...NEBRASKA PANHANDLE...

CITY           SKY/WX    TMP DP  RH WIND       PRES   REMARKS
CHADRON        CLEAR     14  10  84 W3        29.96S
ALLIANCE       PTCLDY    13  11  92 CALM      29.97F
SCOTTSBLUFF    PTCLDY    14  10  84 E5        29.98F WCI   6
SIDNEY         PTCLDY    18  13  80 SW9       30.00F WCI   7

...WESTERN AND NORTH CENTRAL NEBRASKA...

CITY           SKY/WX    TMP DP  RH WIND       PRES   REMARKS
VALENTINE      MOCLDY    17  15  92 W6        29.98S WCI   9
AINSWORTH      CLEAR     22  18  87 W7        29.97S WCI  13
ONEILL         FOG      N/A N/A N/A SW5       30.01S VSB 1/4
BROKEN BOW     CLEAR     25  21  85 N5        30.00S WCI  19
IMPERIAL       CLEAR     26  19  74 W8        30.02F WCI  18
NORTH PLATTE   CLEAR     18  16  92 NW6       30.02F FOG     WCI  10
MCCOOK         CLEAR     26  23  88 W9        30.04S WCI  17

...EASTERN NEBRASKA...

CITY           SKY/WX    TMP DP  RH WIND       PRES   REMARKS
NORFOLK        CLOUDY    33  32  96 S6        30.05S FOG     WCI  28
SO SIOUX CITY  CLOUDY    32  29  88 SE10      30.10F WCI  24
TEKAMAH        CLOUDY    32  30  92 SE12      30.12S FOG     WCI  23
COLUMBUS       CLOUDY    34  28  80 S8        30.08F WCI  27
ALBION         CLOUDY    33  32  95 S3        30.04S FOG
OMAHA EPPLEY   FRZ DRZL  31  30  96 SE10      30.14S FOG     WCI  22
OFFUTT AFB     CLOUDY    31  29  93 SE8       30.13S FOG     WCI  23
MILLARD        CLOUDY    32  30  93 SE7       30.13S FOG     WCI  26
LINCOLN        CLOUDY    33  31  92 S7        30.11F FOG     WCI  27
NEBRASKA CITY  CLOUDY    30  30 100 SE9       30.13F FOG     WCI  22
BEATRICE       CLOUDY    33  31  94 S10       30.09F WCI  24
FALLS CITY     CLOUDY    31  28  89 SE7       30.16F WCI  24

...NORTHERN KANSAS...

CITY           SKY/WX    TMP DP  RH WIND       PRES   REMARKS
GOODLAND       MOCLDY    32  28  85 W10       30.04F WCI  24
HILL CITY      CLEAR     32  27  81 SW7       30.06S WCI  26
NORTON         SUNNY     28  23  80 W5        30.04S WCI  23
PHILLIPSBURG   CLEAR     36  30  80 NW5       30.06S WCI  32
SMITH CENTER   CLEAR     25  25 100 CALM      30.06S FOG
BELOIT         CLEAR     27  27 100 SE6       30.07F WCI  20
HAYS           CLEAR     28  21  74 W5        30.08F WCI  23
RUSSELL        CLEAR     33  31  92 S13       30.07S WCI  24
CONCORDIA      MOCLDY    31  31 100 S6        30.08S FOG     WCI  25
SALINA         CLEAR     31  29  92 S9        30.12F FOG     WCI  23
TOPEKA         CLOUDY    34  29  82 SE6       30.20F WCI  29



USA.gov is the U.S. government's official web portal to all federal, state and local government web resources and services.